Location: Unspecified
(47.5487°N, 19.0270°E)
Time: 06:48:53
(UTC+01:00)

ISS - Visible Passes

Search period start: 11 December 2017 00:00
Search period end: 21 December 2017 00:00
Orbit: 402 x 407 km, 51.6° (Epoch: 11 December)

Date Brightness Start Highest point End Pass type
(mag) Time Alt. Az. Time Alt. Az. Time Alt. Az.
11 Dec -3.3 16:36:49 10° WNW 16:40:00 42° N 16:43:07 10° E visible
11 Dec -2.7 18:13:20 10° WNW 18:15:48 45° W 18:15:48 45° W visible
12 Dec -3.9 17:21:04 10° WNW 17:24:23 80° NNE 17:25:59 28° ESE visible
12 Dec -0.5 18:58:01 10° W 18:58:41 13° W 18:58:41 13° W visible
13 Dec -3.7 16:28:49 10° WNW 16:32:05 57° NNE 16:35:20 10° E visible
13 Dec -2.4 18:05:27 10° WNW 18:08:28 34° SW 18:09:01 32° SSW visible
14 Dec -3.2 17:13:02 10° WNW 17:16:17 57° SSW 17:19:31 10° SE visible
14 Dec -0.5 18:51:50 10° SW 18:52:10 10° SW 18:52:20 10° SW visible
15 Dec -1.0 17:57:52 10° W 18:00:08 17° SW 18:02:24 10° S visible
16 Dec -1.7 17:05:08 10° W 17:08:02 29° SW 17:10:55 10° SSE visible
18 Dec -0.6 16:57:40 10° W 16:59:35 15° SW 17:01:30 10° S visible
